Kirtland AFB, NM

3:50 PM MST on February 24, 2017 (GMT -0700)
Albuquerque International Sunport

Weather History for KABQ - January, 2014

Change the Weather History Date:

Friday, January 31, 2014

  Actual Average Record
Temperature  
Mean Temperature 51 °F 38 °F  
Max Temperature 60 °F 49 °F 72 °F (1911)
Min Temperature 41 °F 28 °F 5 °F (1951)
Degree Days  
Heating Degree Days 14 27  
Month to date heating degree days 802 885  
Since 1 July heating degree days 2596 2642  
Cooling Degree Days 0 0  
Month to date cooling degree days 0 0  
Year to date cooling degree days 0 0  
Moisture  
Dew Point 25 °F    
Average Humidity 39    
Maximum Humidity 49    
Minimum Humidity 28    
Precipitation  
Precipitation 0.00 in 0.01 in 0.51 in (1973)
Month to date precipitation 0.00 0.38  
Year to date precipitation 0.00 0.38  
Snow  
Snow 0.00 in - - ()
Month to date snowfall 0.0  
Since 1 July snowfall 4.9  
Snow Depth 0.00 in    
Sea Level Pressure  
Sea Level Pressure 29.65 in    
Wind  
Wind Speed 14 mph (SSW)    
Max Wind Speed 32 mph    
Max Gust Speed 39 mph    
Visibility 10 miles    
Events      
T = Trace of Precipitation, MM = Missing Value Source: NWS Daily Summary

Daily Weather History Graph

Daily Weather History Graph

Search for Another Location

Airport or City:

Trip Planner

Search our weather history database for the weather conditions in past years. The results will help you decide how hot, cold, wet, or windy it might be!

Date:

Astronomy

Jan. 31, 2014 Rise Set
Actual Time 7:05 AM MST 5:34 PM MST
Civil Twilight 6:39 AM MST 6:00 PM MST
Nautical Twilight 6:09 AM MST 6:31 PM MST
Astronomical Twilight 5:39 AM MST 7:01 PM MST
Moon 7:21 AM MST (1/31) 6:56 PM MST (1/31)
Length of Visible Light 11h 21m
Length of Day
10h 28m
New Moon, 1% of the Moon is Illuminated
Jan 31
New Moon
Feb 6
First Quarter
Feb 14
Full
Feb 22
Last Quarter
Mar 1
New

Hourly Weather History & Observations

Time (MST) Temp. Windchill Dew Point Humidity Pressure Visibility Wind Dir Wind Speed Gust Speed Precip Events Conditions
12:52 AM 48.0 °F - 26.1 °F 42% 29.64 in 10.0 mi ESE 10.4 mph - N/A   Mostly Cloudy
1:52 AM 48.9 °F - 27.0 °F 43% 29.63 in 10.0 mi SE 11.5 mph 21.9 mph N/A   Mostly Cloudy
2:52 AM 48.9 °F - 26.1 °F 41% 29.63 in 10.0 mi SSE 11.5 mph - N/A   Overcast
3:52 AM 48.0 °F - 26.1 °F 42% 29.63 in 10.0 mi South 9.2 mph - N/A   Mostly Cloudy
4:52 AM 44.1 °F 39.5 °F 25.0 °F 47% 29.65 in 10.0 mi SE 8.1 mph - N/A   Mostly Cloudy
5:52 AM 44.1 °F 39.5 °F 25.0 °F 47% 29.67 in 10.0 mi SE 8.1 mph - N/A   Scattered Clouds
6:52 AM 42.1 °F 36.1 °F 25.0 °F 51% 29.70 in 10.0 mi SE 10.4 mph - N/A   Mostly Cloudy
7:52 AM 44.1 °F 38.1 °F 24.1 °F 45% 29.69 in 10.0 mi SSE 11.5 mph - N/A   Mostly Cloudy
8:52 AM 48.0 °F - 23.0 °F 37% 29.70 in 10.0 mi South 10.4 mph - N/A   Mostly Cloudy
9:52 AM 53.1 °F - 23.0 °F 31% 29.69 in 10.0 mi South 16.1 mph - N/A   Mostly Cloudy
10:52 AM 54.0 °F - 24.1 °F 31% 29.69 in 10.0 mi SSW 13.8 mph - N/A   Overcast
11:52 AM 55.9 °F - 24.1 °F 29% 29.65 in 10.0 mi South 15.0 mph - N/A   Overcast
12:52 PM 57.9 °F - 26.1 °F 30% 29.60 in 10.0 mi WSW 19.6 mph 27.6 mph N/A   Overcast
1:52 PM 59.0 °F - 27.0 °F 29% 29.56 in 10.0 mi WSW 26.5 mph 36.8 mph N/A   Overcast
2:52 PM 57.9 °F - 28.0 °F 32% 29.54 in 10.0 mi West 24.2 mph 36.8 mph N/A   Mostly Cloudy
3:52 PM 57.0 °F - 28.0 °F 33% 29.56 in 10.0 mi WSW 21.9 mph 33.4 mph N/A   Mostly Cloudy
4:52 PM 55.0 °F - 26.1 °F 33% 29.58 in 10.0 mi WSW 28.8 mph 39.1 mph N/A   Mostly Cloudy
5:52 PM 53.1 °F - 25.0 °F 34% 29.62 in 10.0 mi WSW 12.7 mph - N/A   Mostly Cloudy
6:52 PM 51.1 °F - 25.0 °F 36% 29.66 in 10.0 mi WSW 11.5 mph - N/A   Mostly Cloudy
7:52 PM 48.0 °F - 23.0 °F 37% 29.70 in 10.0 mi Variable 4.6 mph - N/A   Mostly Cloudy
8:52 PM 46.0 °F 39.9 °F 21.0 °F 37% 29.71 in 10.0 mi WNW 13.8 mph - N/A   Mostly Cloudy
9:52 PM 45.0 °F 39.7 °F 21.0 °F 39% 29.70 in 10.0 mi WNW 10.4 mph - N/A   Mostly Cloudy
10:52 PM 45.0 °F 38.9 °F 21.0 °F 39% 29.68 in 10.0 mi West 12.7 mph - N/A   Mostly Cloudy
11:52 PM 44.1 °F 39.5 °F 21.9 °F 42% 29.67 in 10.0 mi West 8.1 mph - N/A   Mostly Cloudy